Weather History for EGNH - April, 2013

Change the Weather History Date:

Wednesday, April 24, 2013

  Actual Average Record
Temperature  
Mean Temperature 50 °F -  
Max Temperature 54 °F 56 °F 62 °F (2002)
Min Temperature 47 °F 45 °F 35 °F (2006)
Degree Days  
Heating Degree Days 14    
Moisture  
Dew Point 47 °F    
Average Humidity 87    
Maximum Humidity 94    
Minimum Humidity 79    
Precipitation  
Precipitation 0.00 in - - ()
Sea Level Pressure  
Sea Level Pressure 30.16 in    
Wind  
Wind Speed 14 mph ()    
Max Wind Speed 26 mph    
Max Gust Speed -    
Visibility 6.1 miles    
Events Rain    
Averages and records for this station are not official NWS values.
T = Trace of Precipitation, MM = Missing Value Source: Averaged Metar Reports

Daily Weather History Graph

Daily Weather History Graph

Search for Another Location

Airport or City:

Trip Planner

Search our weather history database for the weather conditions in past years. The results will help you decide how hot, cold, wet, or windy it might be!

Date:

Astronomy

Apr. 24, 2013 Rise Set
Actual Time 5:51 AM BST 8:30 PM BST
Civil Twilight 5:11 AM BST 9:10 PM BST
Nautical Twilight 4:21 AM BST 10:01 PM BST
Astronomical Twilight 3:18 AM BST 11:05 PM BST
Moon 7:10 PM BST (4/24) 4:59 AM BST (4/24)
Length of Visible Light 15h 58m
Length of Day
14h 39m
Waxing Gibbous, 97% of the Moon is Illuminated
Apr 24
Waxing Gibbous
Apr 25
Full
May 2
Last Quarter
May 10
New
May 18
First Quarter

Hourly Weather History & Observations

Time (BST) Temp. Dew Point Humidity Pressure Visibility Wind Dir Wind Speed Gust Speed Precip Events Conditions
12:50 AM 49 °F 47 °F 88%  in - South 11.5 mph - -  
3:50 AM 48 °F 45 °F 86%  in - SE 6.9 mph - -  
6:20 AM 50.0 °F 48.2 °F 94% 30.09 in 6.2 mi South 10.4 mph - N/A   Scattered Clouds
6:50 AM 51 °F 49 °F 88%  in - SSW 12.7 mph - -  
6:50 AM 51.8 °F 48.2 °F 88% 30.09 in 6.2 mi South 10.4 mph - N/A   Mostly Cloudy
7:20 AM 51.8 °F 48.2 °F 88% 30.09 in 6.2 mi SSW 15.0 mph - N/A   Mostly Cloudy
7:50 AM 51.8 °F 48.2 °F 88% 30.09 in 6.2 mi SW 13.8 mph - N/A Rain Light Rain
8:20 AM 51.8 °F 48.2 °F 88% 30.09 in 6.2 mi SW 19.6 mph - N/A   Scattered Clouds
8:50 AM 50.0 °F 48.2 °F 94% 30.09 in 6.2 mi SW 12.7 mph - N/A   Mostly Cloudy
9:20 AM 50.0 °F 48.2 °F 94% 30.09 in 6.2 mi WSW 18.4 mph - N/A   Scattered Clouds
9:50 AM 51 °F 48 °F 87%  in - WSW 21.9 mph - -  
9:50 AM 50.0 °F 48.2 °F 94% 30.12 in 6.2 mi WSW 23.0 mph - N/A   Scattered Clouds
10:20 AM 51.8 °F 48.2 °F 88% 30.12 in 6.2 mi WSW 23.0 mph - N/A   Scattered Clouds
10:50 AM 51.8 °F 48.2 °F 88% 30.12 in 6.2 mi WSW 24.2 mph - N/A   Scattered Clouds
11:20 AM 53.6 °F 50.0 °F 88% 30.12 in 6.2 mi WSW 26.5 mph - N/A   Partly Cloudy
11:50 AM 51.8 °F 48.2 °F 88% 30.12 in 6.2 mi WSW 25.3 mph - N/A   Scattered Clouds
12:20 PM 51.8 °F 50.0 °F 94% 30.12 in 6.2 mi WSW 26.5 mph - N/A   Scattered Clouds
12:50 PM 52 °F 49 °F 84%  in - WSW 24.2 mph - -  
12:50 PM 53.6 °F 50.0 °F 88% 30.15 in 6.2 mi WSW 23.0 mph - N/A   Scattered Clouds
1:20 PM 51.8 °F 50.0 °F 94% 30.15 in 6.2 mi WSW 21.9 mph - N/A   Mostly Cloudy
1:50 PM 53.6 °F 50.0 °F 88% 30.15 in 6.2 mi WSW 25.3 mph - N/A   Scattered Clouds
2:20 PM 50.0 °F 48.2 °F 94% 30.18 in 3.1 mi WSW 25.3 mph - N/A Rain Light Rain Showers
3:20 PM 51.8 °F 46.4 °F 82% 30.18 in 6.2 mi NW 13.8 mph - N/A   Scattered Clouds
3:50 PM 49 °F 45 °F 81%  in - WNW 13.8 mph - -  
3:50 PM 51.8 °F 46.4 °F 82% 30.21 in 6.2 mi NW 12.7 mph - N/A   Scattered Clouds
4:20 PM 50.0 °F 44.6 °F 82% 30.21 in 6.2 mi NW 13.8 mph - N/A   Scattered Clouds
4:50 PM 50.0 °F 44.6 °F 82% 30.21 in 6.2 mi NW 11.5 mph - N/A   Scattered Clouds
5:20 PM 50.0 °F 44.6 °F 82% 30.21 in 6.2 mi NW 11.5 mph - N/A   Scattered Clouds
5:50 PM 48.2 °F 44.6 °F 87% 30.21 in 6.2 mi NW 11.5 mph - N/A   Scattered Clouds
6:20 PM 48.2 °F 44.6 °F 87% 30.24 in 6.2 mi WNW 11.5 mph - N/A   Scattered Clouds
6:50 PM 48 °F 44 °F 79%  in - WNW 8.1 mph - -  
6:50 PM 48.2 °F 44.6 °F 87% 30.24 in 6.2 mi WNW 11.5 mph - N/A   Scattered Clouds
7:20 PM 48.2 °F 44.6 °F 87% 30.24 in 6.2 mi WNW 5.8 mph - N/A   Scattered Clouds
8:20 PM 48.2 °F 44.6 °F 87% 30.24 in 6.2 mi WNW 5.8 mph - N/A   Scattered Clouds
8:50 PM 48.2 °F 42.8 °F 82% 30.24 in 6.2 mi WNW 5.8 mph - N/A   Scattered Clouds
9:50 PM 47 °F 43 °F 80%  in - WNW 3.5 mph - -